TimePDT,TemperatureF,Dew PointF,Humidity,Sea Level PressureIn,VisibilityMPH,Wind Direction,Wind SpeedMPH,Gust SpeedMPH,PrecipitationIn,Events,Conditions,WindDirDegrees,DateUTC
12:53 AM,48.9,28.9,46,30.14,10.0,West,9.2,-,N/A,,Clear,260,2013-03-11 07:53:00
1:53 AM,48.9,28.0,44,30.14,10.0,West,5.8,-,N/A,,Clear,270,2013-03-11 08:53:00
2:53 AM,48.9,28.0,44,30.12,10.0,West,6.9,-,N/A,,Clear,270,2013-03-11 09:53:00
3:53 AM,48.0,26.1,42,30.11,10.0,West,6.9,-,N/A,,Clear,260,2013-03-11 10:53:00
4:53 AM,46.9,26.1,44,30.11,10.0,West,3.5,-,N/A,,Clear,270,2013-03-11 11:53:00
5:53 AM,46.9,25.0,42,30.12,10.0,WSW,3.5,-,N/A,,Clear,250,2013-03-11 12:53:00
6:53 AM,45.0,25.0,46,30.13,10.0,Calm,Calm,-,N/A,,Clear,0,2013-03-11 13:53:00
7:53 AM,48.9,27.0,43,30.14,10.0,West,4.6,-,N/A,,Clear,270,2013-03-11 14:53:00
8:53 AM,57.9,30.9,36,30.16,10.0,West,4.6,-,N/A,,Clear,260,2013-03-11 15:53:00
9:53 AM,66.9,27.0,22,30.16,10.0,WNW,5.8,-,N/A,,Clear,290,2013-03-11 16:53:00
10:53 AM,71.1,21.9,16,30.15,10.0,NW,5.8,-,N/A,,Clear,310,2013-03-11 17:53:00
11:53 AM,77.0,19.9,12,30.14,10.0,North,6.9,-,N/A,,Clear,350,2013-03-11 18:53:00
12:53 PM,79.0,21.9,12,30.11,10.0,NNW,6.9,-,N/A,,Clear,330,2013-03-11 19:53:00
1:53 PM,80.1,23.0,12,30.07,10.0,North,5.8,-,N/A,,Clear,350,2013-03-11 20:53:00
2:53 PM,81.0,23.0,12,30.04,10.0,ENE,6.9,-,N/A,,Clear,70,2013-03-11 21:53:00
3:53 PM,81.0,24.1,12,30.01,10.0,Calm,Calm,-,N/A,,Clear,0,2013-03-11 22:53:00
4:53 PM,81.0,25.0,13,30.00,10.0,NW,3.5,-,N/A,,Clear,310,2013-03-11 23:53:00
5:53 PM,80.1,26.1,14,29.98,10.0,Calm,Calm,-,N/A,,Clear,0,2013-03-12 00:53:00
6:53 PM,73.9,30.9,21,29.97,10.0,WSW,3.5,-,N/A,,Clear,250,2013-03-12 01:53:00
7:53 PM,71.1,28.0,20,29.98,10.0,SSW,4.6,-,N/A,,Clear,200,2013-03-12 02:53:00
8:53 PM,66.0,28.0,24,30.00,10.0,Calm,Calm,-,N/A,,Clear,0,2013-03-12 03:53:00
9:53 PM,64.9,28.0,25,30.01,10.0,SSW,3.5,-,N/A,,Clear,200,2013-03-12 04:53:00
10:53 PM,55.9,35.1,45,30.02,10.0,West,5.8,-,N/A,,Clear,270,2013-03-12 05:53:00
11:53 PM,57.9,30.9,36,30.01,10.0,Calm,Calm,-,N/A,,Clear,0,2013-03-12 06:53:00